Temperature
16 16 16 16 16 16 16 16 16 16 16 16 17 17 17 17 17 17 17 16 16 16 16 16 15 15 15 15 15 15 15 14 14 14 14 14 14 14
16 16 16 16 16 16 16 16 16 16 16 16 16 16 16 16 16 16 16 16 16 16 16 15 15 15 15 15 15 15 15 14 14 14 14 14 14 14
15 15 15 15 15 15 15 15 15 15 15 15 15 15 15 15 15 15 15 15 15 15 15 15 15 15 15 14 14 14 14 14 14 14 14 14 14 14
15 15 15 15 15 15 15 15 15 15 15 14 14 14 14 14 14 14 15 14 14 14 14 14 14 14 14 14 14 14 14 14 14 14 14 14 14 14
15 15 15 14 14 14 14 14 14 14 14 14 14 14 14 14 14 14 13 13 13 13 13 13 13 13 13 13 13 13 13 13 13 13 13 13 13 13
14 14 14 14 14 14 14 13 13 13 13 13 13 13 13 13 13 13 13 13 12 12 12 12 12 11 11 11 11 11 11 11 11 12 12 12 12 12
14 13 13 13 13 13 13 13 12 12 12 12 12 12 12 12 11 11 11 11 11 11 11 11 10 10 10 10 10 10 10 10 10 10 10 10 11 11
13 13 12 12 12 12 12 12 12 11 11 11 11 10 10 10 10 10 10 10 10 9 9 9 9 9 9 9 9 9 9 9 9 9 9 9 9 10
12 12 11 11 11 11 11 11 10 10 10 10 9 9 9 8 8 8 8 8 8 8 8 8 8 8 8 8 8 8 7 7 7 7 8 8 8 8
11 11 11 10 10 10 10 9 9 9 9 8 8 8 7 7 7 7 7 7 7 7 6 6 7 7 7 7 7 6 6 6 6 6 7 7 7 7
10 10 10 9 9 9 9 8 8 8 7 7 7 6 6 6 6 6 6 6 6 6 5 5 5 5 6 6 6 5 5 5 5 6 6 6 6 6
9 9 9 8 8 8 8 7 7 6 6 6 6 5 5 5 5 5 4 4 4 4 4 3 3 3 3 4 4 4 4 5 5 5 5 5 5 5
9 8 8 7 7 7 6 6 6 5 5 5 5 5 4 4 4 4 3 3 3 3 2 2 2 2 2 2 3 3 3 3 4 4 4 4 4 4
8 7 7 6 6 6 6 5 5 5 4 4 4 4 4 3 3 3 2 2 2 2 2 1 1 1 1 1 1 2 2 2 2 3 3 3 3 3
7 6 6 5 5 5 5 4 4 4 4 3 3 3 2 2 2 2 2 2 2 2 1 1 1 1 1 0 0 1 1 2 2 2 2 2 2 3
6 5 5 4 4 4 4 3 3 3 3 2 2 2 2 2 2 2 2 2 2 2 1 1 1 0 0 1 1 1 1 0 1 1 1 1 2 2
5 4 4 4 4 3 3 3 2 2 2 2 2 1 1 1 1 1 1 1 1 0 1 1 1 1 0 0 1 0 0 0 0 0 1 1 1 2
4 4 3 3 3 3 2 2 2 1 1 1 1 1 1 1 1 1 0 0 0 0 -0 -0 -0 0 0 0 0 -0 -0 0 0 0 0 0 1 1
4 3 3 2 2 2 2 1 1 1 1 1 1 0 0 0 0 0 0 -0 -0 -0 -0 -0 -1 -1 -1 -1 -1 -0 -0 -0 -0 0 0 0 1 1
3 3 2 2 2 1 1 1 1 1 0 0 0 0 0 -0 -0 -0 -0 -1 -1 -0 -0 -0 -1 -1 -1 -1 -1 -0 -0 -0 -0 -0 -0 0 0 1
3 2 2 2 1 1 1 1 1 0 0 0 -0 -0 -0 -0 -0 -1 -1 -1 -1 -1 -1 -1 -1 -1 -1 -1 -1 -1 -1 -0 -1 -1 -1 -0 -0 0
2 2 2 1 1 1 1 1 0 0 0 0 -0 -0 -0 -1 -1 -1 -1 -1 -1 -1 -1 -1 -1 -1 -1 -1 -1 -1 -1 -1 -1 -0 -1 -1 -1 -1
2 2 1 1 1 1 1 1 0 0 0 0 -0 -0 -0 -1 -1 -1 -1 -1 -1 -1 -1 -1 -1 -1 -1 -1 -2 -2 -1 -1 -1 -1 -0 -0 -1 -1
Wind_Speed
4 4 2 2 1 1 2 2 3 2 1 2 2 4 5 5 6 4 3 5 5 4 5 6 7 8 9 10 11 11 12 13 13 14 14 15 15 15
3 4 3 2 2 2 2 1 2 3 2 1 1 3 5 6 8 6 5 7 8 7 6 5 5 5 5 6 8 9 10 11 13 14 14 15 16 16
4 4 3 3 3 2 2 2 1 2 2 1 1 3 4 6 7 8 7 7 7 9 8 7 7 7 6 6 7 7 8 9 10 12 13 14 15 16
5 5 4 4 4 3 3 3 2 1 2 1 1 3 4 5 5 6 8 8 8 10 11 11 11 10 9 9 8 8 8 8 9 10 11 12 13 14
6 6 5 5 5 4 4 3 2 2 2 1 1 2 3 4 4 5 7 7 8 10 11 12 12 12 12 11 11 10 10 9 10 10 10 11 12 13
8 7 7 7 6 5 5 4 4 4 4 3 2 3 3 3 4 4 5 5 4 8 10 10 11 12 12 13 12 11 11 11 11 11 11 11 11 12
9 9 9 11 10 8 7 6 6 5 4 4 3 3 4 4 4 4 4 4 3 5 6 7 7 8 10 10 11 13 13 12 12 12 11 11 12 12
10 9 10 11 14 16 16 14 10 7 5 4 3 4 4 4 4 4 4 4 3 5 5 5 5 5 7 8 11 13 13 13 13 13 13 13 13 13
10 8 8 9 10 10 13 16 16 16 11 6 6 5 4 4 4 5 4 4 3 5 5 4 4 5 8 10 12 12 12 13 14 15 16 16 15 15
10 9 9 8 8 9 11 12 12 11 11 9 7 6 6 5 4 3 3 4 3 3 4 3 5 6 8 10 10 11 13 15 17 17 17 17 18 17
9 9 9 9 10 11 11 10 10 8 12 15 14 13 14 14 10 5 5 5 4 4 4 4 5 7 7 6 7 11 15 17 18 18 18 18 19 18
8 9 12 11 11 11 9 9 8 6 6 8 10 11 12 13 13 8 5 5 4 4 5 6 5 6 6 4 7 12 14 15 17 18 18 19 19 14
8 7 8 13 14 13 10 8 7 5 6 6 6 7 7 8 9 9 6 4 4 4 5 5 5 5 5 7 8 10 12 13 14 14 15 17 18 14
9 7 8 14 15 13 10 10 10 8 6 6 6 6 6 7 7 9 8 7 5 6 7 6 4 5 6 8 8 9 11 13 12 11 13 15 16 16
9 13 13 14 13 11 13 13 9 7 6 6 6 5 5 6 7 7 8 10 9 8 7 7 6 6 6 8 9 10 10 10 9 10 11 11 11 11
10 12 14 14 11 10 9 8 7 6 6 5 5 5 5 6 6 6 6 8 7 7 9 10 9 7 7 10 10 11 10 8 10 12 12 11 12 12
8 7 7 6 7 6 6 6 5 5 5 5 5 6 7 7 7 7 6 7 6 8 9 9 12 11 10 9 9 10 10 11 11 12 12 12 12 11
9 7 6 5 5 4 4 4 4 4 5 5 5 6 7 7 8 7 7 7 8 9 9 10 10 10 8 7 7 9 10 11 12 12 11 12 13 12
8 6 5 4 3 3 2 2 3 3 4 5 5 6 6 7 7 8 8 8 8 9 9 9 9 8 11 12 8 7 10 12 12 11 11 11 12 13
5 4 3 3 2 1 1 1 2 3 4 5 5 6 6 7 7 8 8 9 9 10 10 9 9 9 9 10 10 12 13 11 10 12 12 12 12 13
3 3 2 2 1 0 1 1 2 3 4 5 5 6 6 6 7 7 8 10 9 9 10 11 11 14 10 8 9 10 11 13 13 11 12 12 12 11
3 2 2 1 1 0 1 2 2 3 5 5 5 6 6 6 7 8 8 9 9 9 11 11 11 10 8 9 11 13 13 14 14 16 14 12 10 9
2 2 1 1 1 1 2 2 4 4 4 5 5 5 6 6 6 7 8 8 9 10 11 11 10 9 9 10 11 12 15 15 13 12 11 14 17 18
Wind_Direction
141 137 126 122 128 149 155 160 156 176 274 332 345 355 1 11 1 5 354 359 348 329 306 292 285 281 279 274 272 270 270 270 270 269 268 266 265 265
134 129 118 111 108 111 133 144 157 165 193 316 348 359 12 25 28 31 23 21 23 19 16 8 352 337 319 306 295 288 282 277 274 271 269 267 266 264
126 124 112 104 97 83 82 89 97 140 177 277 356 8 23 22 20 26 28 28 25 26 26 22 18 10 357 345 334 324 311 298 288 281 275 272 269 267
122 114 105 101 91 81 82 79 75 94 162 189 10 15 26 17 17 25 25 27 28 38 42 38 33 27 20 12 2 352 343 332 318 304 292 284 278 273
108 106 100 100 89 79 75 72 62 68 84 122 40 18 18 17 12 19 22 16 28 36 32 30 28 25 21 16 9 3 359 352 342 329 315 303 293 286
93 91 88 90 91 85 74 62 63 64 64 71 53 27 16 5 19 12 7 3 9 20 19 22 21 21 19 17 16 13 7 0 354 347 337 326 314 302
90 86 84 85 83 80 79 68 67 68 65 62 52 37 23 15 10 357 358 346 359 13 360 1 3 8 8 11 15 10 8 6 1 355 349 343 333 322
93 84 79 74 78 76 74 70 68 70 69 67 56 46 27 10 358 4 2 1 349 359 346 337 352 353 354 357 2 5 9 8 4 356 348 340 333 326
92 88 83 75 76 80 75 69 63 62 67 82 70 49 27 6 6 15 14 4 336 337 336 326 343 342 340 339 341 348 357 360 355 347 339 333 329 322
87 87 87 77 78 87 84 75 67 59 60 66 71 56 43 27 26 18 353 339 318 347 2 328 335 330 326 321 328 344 351 347 339 333 329 326 323 318
80 78 83 81 80 86 86 81 70 56 57 63 64 57 50 44 39 33 20 7 350 346 6 339 324 323 313 307 323 338 336 329 325 323 321 321 320 317
83 77 77 82 78 78 82 81 74 55 46 47 45 43 41 39 38 36 21 8 350 331 355 342 329 333 316 306 318 323 322 319 320 318 318 318 320 318
94 83 76 81 79 76 76 77 79 73 59 52 45 37 31 27 23 20 16 5 346 326 333 336 321 325 308 306 309 310 314 316 317 314 315 316 315 313
99 94 89 85 81 75 74 72 70 65 58 50 41 29 19 11 1 356 355 350 323 298 306 321 313 312 310 307 307 307 310 311 310 311 316 317 313 308
98 99 92 85 78 71 67 65 60 56 52 45 33 19 2 350 350 348 348 347 336 326 329 325 315 306 298 298 303 304 311 312 310 315 317 314 311 310
95 90 83 75 72 67 62 57 54 54 53 41 22 4 356 355 357 353 346 345 339 333 330 325 317 306 300 297 296 300 305 305 309 313 314 309 304 300
104 88 78 73 69 63 59 54 48 43 38 25 14 4 357 353 350 349 344 342 337 330 328 329 327 315 291 285 297 301 308 311 311 313 312 310 306 303
98 92 86 81 78 71 64 51 39 30 22 13 7 360 352 347 342 341 340 336 330 326 324 324 329 329 325 309 266 295 309 313 313 312 310 308 309 310
96 100 99 93 85 73 59 42 20 5 2 2 358 352 346 341 338 337 337 334 330 325 322 323 327 330 327 325 316 296 306 311 311 312 312 310 307 309
104 112 110 103 95 79 47 17 356 352 353 350 346 343 341 337 335 334 332 330 326 324 324 326 328 327 318 310 305 308 307 308 314 315 315 312 306 299
111 114 122 126 121 81 356 343 339 337 337 336 337 337 338 335 332 330 326 323 323 324 324 323 318 315 308 302 306 313 317 315 310 310 315 316 317 316
125 134 148 168 193 279 311 317 322 327 332 333 334 334 333 330 326 324 323 323 322 320 316 314 317 321 322 319 318 318 320 323 322 316 310 307 316 317
158 169 186 213 239 254 274 295 310 319 323 324 326 327 327 324 321 318 317 317 317 320 322 322 325 327 326 323 321 321 324 328 331 331 329 326 318 309
Height
1562 1563 1565 1566 1567 1568 1569 1569 1570 1570 1570 1570 1571 1570 1570 1570 1570 1570 1570 1570 1570 1570 1570 1570 1570 1569 1569 1569 1568 1568 1567 1567 1566 1566 1566 1565 1565 1565
1560 1561 1563 1564 1565 1565 1566 1567 1567 1568 1567 1567 1568 1567 1567 1567 1567 1566 1566 1566 1565 1565 1565 1565 1564 1564 1564 1563 1563 1562 1562 1561 1561 1560 1560 1559 1559 1559
1559 1560 1561 1562 1562 1563 1564 1564 1564 1565 1565 1565 1564 1564 1564 1564 1563 1563 1562 1562 1561 1561 1560 1560 1559 1559 1558 1557 1557 1556 1555 1555 1554 1554 1553 1553 1552 1552
1557 1558 1559 1560 1560 1561 1561 1561 1562 1561 1562 1561 1561 1561 1560 1560 1559 1559 1558 1558 1557 1556 1555 1555 1554 1553 1552 1551 1550 1549 1549 1548 1547 1546 1546 1545 1545 1544
1555 1556 1557 1558 1558 1558 1559 1559 1559 1559 1558 1558 1558 1557 1557 1556 1556 1555 1554 1553 1552 1552 1551 1550 1548 1547 1546 1545 1544 1543 1541 1540 1539 1539 1538 1537 1536 1536
1553 1554 1555 1556 1556 1556 1556 1556 1556 1556 1556 1555 1555 1554 1553 1552 1552 1551 1550 1549 1548 1547 1546 1545 1543 1542 1541 1539 1538 1537 1535 1534 1532 1531 1530 1529 1528 1527
1550 1552 1553 1553 1554 1554 1554 1554 1554 1554 1553 1553 1552 1551 1550 1549 1548 1547 1546 1545 1544 1543 1541 1540 1539 1537 1536 1534 1532 1531 1529 1527 1526 1524 1523 1522 1520 1519
1549 1550 1551 1552 1552 1552 1553 1553 1552 1552 1551 1550 1550 1549 1548 1547 1546 1544 1543 1541 1540 1539 1537 1536 1534 1533 1531 1529 1527 1525 1523 1521 1519 1518 1516 1514 1513 1511
1548 1549 1550 1551 1551 1551 1551 1551 1551 1550 1550 1549 1548 1547 1546 1545 1544 1542 1540 1539 1537 1534 1532 1531 1529 1527 1526 1524 1522 1520 1518 1515 1513 1511 1509 1507 1505 1503
1547 1549 1550 1550 1550 1551 1551 1550 1550 1549 1548 1547 1547 1546 1545 1543 1542 1540 1538 1537 1534 1532 1529 1527 1524 1522 1520 1519 1517 1514 1512 1509 1507 1504 1501 1499 1497 1494
1547 1549 1550 1550 1550 1551 1550 1550 1549 1549 1548 1547 1546 1545 1543 1542 1540 1538 1536 1533 1531 1528 1525 1523 1519 1516 1514 1513 1511 1508 1506 1503 1500 1497 1494 1491 1489 1486
1547 1549 1550 1550 1551 1550 1550 1550 1549 1549 1548 1547 1545 1544 1542 1540 1538 1536 1533 1531 1528 1525 1522 1520 1516 1513 1509 1507 1505 1503 1499 1496 1493 1490 1487 1484 1481 1478
1547 1548 1549 1550 1550 1550 1550 1549 1548 1548 1547 1546 1544 1542 1540 1538 1536 1533 1531 1529 1526 1523 1520 1516 1513 1510 1507 1502 1499 1497 1493 1489 1485 1482 1479 1477 1474 1471
1547 1548 1549 1550 1550 1550 1549 1549 1548 1547 1546 1544 1543 1540 1538 1536 1534 1531 1529 1526 1524 1520 1517 1513 1510 1507 1503 1498 1494 1490 1488 1484 1480 1476 1472 1469 1467 1465
1547 1549 1550 1550 1550 1550 1549 1548 1547 1546 1545 1543 1541 1539 1536 1534 1531 1529 1526 1524 1521 1518 1514 1510 1507 1504 1500 1496 1491 1486 1482 1478 1475 1471 1467 1463 1460 1458
1548 1549 1550 1550 1550 1550 1549 1548 1547 1545 1544 1542 1540 1538 1535 1532 1529 1526 1522 1519 1516 1514 1511 1507 1504 1500 1496 1492 1488 1483 1479 1475 1470 1467 1462 1458 1455 1452
1549 1550 1550 1551 1551 1550 1548 1547 1547 1545 1543 1541 1539 1536 1533 1530 1527 1523 1520 1517 1513 1510 1506 1503 1500 1497 1493 1489 1484 1480 1476 1472 1467 1463 1458 1453 1450 1447
1550 1550 1550 1550 1550 1550 1549 1548 1546 1545 1542 1540 1537 1535 1531 1528 1525 1522 1518 1515 1511 1508 1504 1500 1496 1491 1488 1485 1482 1477 1473 1468 1464 1459 1454 1449 1444 1442
1550 1550 1551 1551 1551 1550 1549 1547 1546 1544 1542 1539 1536 1533 1530 1527 1523 1520 1516 1513 1509 1506 1502 1498 1494 1489 1485 1480 1477 1475 1470 1464 1460 1455 1451 1446 1441 1436
1550 1551 1551 1551 1551 1550 1548 1547 1545 1543 1541 1538 1535 1532 1529 1525 1522 1518 1515 1511 1508 1504 1500 1497 1493 1488 1484 1479 1473 1470 1467 1462 1457 1451 1446 1442 1437 1432
1551 1551 1551 1551 1550 1549 1548 1546 1545 1542 1540 1537 1534 1531 1527 1524 1521 1517 1514 1510 1506 1502 1498 1494 1491 1487 1482 1477 1472 1466 1463 1459 1455 1449 1443 1438 1432 1427
1551 1551 1551 1551 1550 1549 1547 1546 1544 1541 1539 1536 1533 1530 1526 1523 1519 1516 1512 1509 1505 1501 1496 1492 1488 1484 1479 1475 1469 1464 1459 1455 1450 1446 1442 1437 1431 1425
1551 1551 1551 1550 1549 1548 1547 1545 1543 1540 1538 1535 1532 1529 1525 1522 1519 1515 1511 1507 1503 1499 1495 1490 1486 1482 1477 1473 1468 1462 1457 1451 1446 1441 1438 1434 1430 1425